This is the latest recevied weather packets stored in our database for station/object K8FJG-13. If no packets are shown the sender has not sent any weather packets the latest 10 day(s).
| Time | Temp. | Humidity | Pressure | Rain* | Wind** | Luminosity | Snow |
|---|---|---|---|---|---|---|---|
| 1777874254 | 9.44° C | 64% | 966 hPa | - | - | - | - |
| 1777873651 | 9.44° C | 64% | 966.1 hPa | - | - | - | - |
| 1777873048 | 9.44° C | 65% | 966.3 hPa | - | - | - | - |
| 1777872445 | 9.44° C | 64% | 966.5 hPa | - | - | - | - |
| 1777871842 | 9.44° C | 64% | 966.6 hPa | - | - | - | - |
| 1777871239 | 10° C | 64% | 966.7 hPa | - | - | - | - |
| 1777870636 | 10° C | 64% | 966.7 hPa | - | - | - | - |
| 1777870033 | 10° C | 64% | 966.7 hPa | - | - | - | - |
| 1777869429 | 10° C | 63% | 966.7 hPa | - | - | - | - |
| 1777868826 | 10° C | 64% | 966.8 hPa | - | - | - | - |
| 1777868223 | 10° C | 63% | 966.9 hPa | - | - | - | - |
| 1777867620 | 10° C | 62% | 967 hPa | - | - | - | - |
| 1777867017 | 10° C | 61% | 967.1 hPa | - | - | - | - |
| 1777866414 | 10° C | 61% | 967.2 hPa | - | - | - | - |
| 1777865810 | 10° C | 60% | 967.3 hPa | - | - | - | - |
| 1777865207 | 10° C | 60% | 967.3 hPa | - | - | - | - |
| 1777864604 | 10° C | 61% | 967.4 hPa | - | - | - | - |
| 1777864001 | 10° C | 60% | 967.5 hPa | - | - | - | - |
| 1777863398 | 10° C | 60% | 967.7 hPa | - | - | - | - |
| 1777862795 | 10.56° C | 58% | 967.9 hPa | - | - | - | - |
| 1777862192 | 10.56° C | 58% | 967.9 hPa | - | - | - | - |
| 1777861588 | 9.44° C | 57% | 967.9 hPa | - | - | - | - |
| 1777860985 | 8.89° C | 64% | 967.7 hPa | - | - | - | - |
| 1777860382 | 9.44° C | 59% | 967.6 hPa | - | - | - | - |
| 1777859779 | 10° C | 56% | 967.6 hPa | - | - | - | - |
* Rain since midnight (hover to see other rain measurements)
** Current wind speed in m/s (hover to see current wind gust speed)